GSAT-17

Last updated on Tue Oct 08 2024 00:02:28 GMT+0000 (Coordinated Universal Time)

1 42815U 17040B 24280.70354748 -.00000247 00000+0 00000+0 0 9998 2 42815 0.0524 78.6608 0005235 165.6642 118.3177 1.00271873 26581
UTC large
Height (km)
Speed (km/s)
/
Latitude / Longitude
Inclination (degrees)
Orbital Period (minutes)
Azimuth
Elevation
Range (km)
Doppler Factor

Next 0 passes for location: London (51.5072 / 0.1276)

Sorry there are no passes over London.